• In Belarus
  • List of Countries
  • For 7 days
  • Water Temperature
  • Satellite Maps
  • Weather Map
  • Weather Widgets
  • user-avatar
    Login

    Hourly Weather Altaj

    Today, 24 May, Friday

    Time Temperature Precipitation Wind Pressure Humidity
    00:00 +6°C° 0 mm 5 mps 564 mmHg 30%
    01:00 +5°C° 0 mm 4 mps 564 mmHg 28%
    02:00 +4°C° 0 mm 4 mps 564 mmHg 26%
    03:00 +1°C° 0 mm 4 mps 564 mmHg 24%
    04:00 +1°C° 0 mm 4 mps 564 mmHg 26%
    05:00 +1°C° 0 mm 4 mps 564 mmHg 28%
    06:00 +1°C° 0 mm 4 mps 565 mmHg 26%
    07:00 +1°C° 0 mm 5 mps 565 mmHg 25%
    08:00 +2°C° 0 mm 6 mps 565 mmHg 24%
    09:00 +3°C° 0 mm 7 mps 566 mmHg 22%
    10:00 +3°C° 0 mm 7 mps 566 mmHg 22%
    11:00 +4°C° 0 mm 7 mps 566 mmHg 22%
    12:00 +4°C° 0 mm 7 mps 566 mmHg 21%
    13:00 +5°C° 0 mm 7 mps 566 mmHg 21%
    14:00 +5°C° 0 mm 7 mps 566 mmHg 21%
    15:00 +5°C° 0 mm 7 mps 566 mmHg 21%
    16:00 +4°C° 0 mm 7 mps 566 mmHg 22%
    17:00 +3°C° 0 mm 7 mps 566 mmHg 24%
    18:00 +3°C° 0 mm 6 mps 566 mmHg 25%
    19:00 +2°C° 0 mm 6 mps 566 mmHg 27%
    20:00 +1°C° 0 mm 5 mps 566 mmHg 29%
    21:00 0°C° 0 mm 4 mps 566 mmHg 31%
    22:00 0°C° 0 mm 4 mps 566 mmHg 33%
    23:00 -1°C° 0 mm 4 mps 566 mmHg 34%

    Tomorrow, 25 May, Saturday

    Time Temperature Precipitation Wind Pressure Humidity
    00:00 -1°C° 0 mm 3 mps 566 mmHg 36%
    01:00 -1°C° 0 mm 3 mps 566 mmHg 38%
    02:00 -2°C° 0 mm 3 mps 566 mmHg 40%
    03:00 -2°C° 0 mm 3 mps 566 mmHg 43%
    04:00 -4°C° 0 mm 3 mps 566 mmHg 42%
    05:00 -4°C° 0 mm 3 mps 567 mmHg 42%
    06:00 -4°C° 0 mm 3 mps 567 mmHg 41%
    07:00 -2°C° 0 mm 3 mps 568 mmHg 38%
    08:00 -2°C° 0 mm 4 mps 568 mmHg 35%
    09:00 -1°C° 0 mm 4 mps 569 mmHg 32%
    10:00 0°C° 0 mm 4 mps 569 mmHg 28%
    11:00 +1°C° 0 mm 4 mps 570 mmHg 24%
    12:00 +2°C° 0 mm 5 mps 570 mmHg 21%
    13:00 +4°C° 0 mm 4 mps 570 mmHg 19%
    14:00 +4°C° 0 mm 4 mps 571 mmHg 17%
    15:00 +5°C° 0 mm 4 mps 571 mmHg 15%
    16:00 +5°C° 0 mm 4 mps 571 mmHg 15%
    17:00 +5°C° 0 mm 3 mps 571 mmHg 16%
    18:00 +5°C° 0 mm 3 mps 571 mmHg 16%
    19:00 +4°C° 0 mm 3 mps 571 mmHg 18%
    20:00 +4°C° 0 mm 2 mps 571 mmHg 20%
    21:00 +4°C° 0 mm 1 mps 571 mmHg 21%
    22:00 +4°C° 0 mm 1 mps 571 mmHg 23%
    23:00 +3°C° 0 mm 1 mps 571 mmHg 24%

    Day after tomorrow, 26 May, Sunday

    Time Temperature Precipitation Wind Pressure Humidity
    00:00 +3°C° 0 mm 1 mps 570 mmHg 25%
    01:00 +3°C° 0 mm 1 mps 570 mmHg 25%
    02:00 +1°C° 0 mm 2 mps 570 mmHg 25%
    03:00 0°C° 0 mm 3 mps 570 mmHg 25%
    04:00 +1°C° 0 mm 3 mps 571 mmHg 23%
    05:00 +2°C° 0 mm 3 mps 571 mmHg 22%
    06:00 +3°C° 0 mm 3 mps 572 mmHg 20%
    07:00 +4°C° 0 mm 4 mps 573 mmHg 18%
    08:00 +6°C° 0 mm 4 mps 574 mmHg 15%
    09:00 +7°C° 0 mm 5 mps 574 mmHg 13%
    10:00 +8°C° 0 mm 5 mps 574 mmHg 12%
    11:00 +9°C° 0 mm 5 mps 575 mmHg 11%
    12:00 +10°C° 0 mm 5 mps 575 mmHg 10%
    13:00 +12°C° 0 mm 5 mps 575 mmHg 10%
    14:00 +12°C° 0 mm 5 mps 574 mmHg 10%
    15:00 +12°C° 0 mm 5 mps 574 mmHg 10%
    16:00 +12°C° 0 mm 5 mps 574 mmHg 11%
    17:00 +12°C° 0 mm 4 mps 574 mmHg 12%
    18:00 +11°C° 0 mm 4 mps 574 mmHg 13%
    19:00 +10°C° 0 mm 4 mps 573 mmHg 14%
    20:00 +10°C° 0 mm 3 mps 573 mmHg 16%
    21:00 +9°C° 0 mm 3 mps 573 mmHg 17%
    22:00 +8°C° 0 mm 3 mps 573 mmHg 18%
    23:00 +7°C° 0 mm 3 mps 572 mmHg 19%

    27 May, Monday

    Time Temperature Precipitation Wind Pressure Humidity
    00:00 +7°C° 0 mm 3 mps 572 mmHg 19%
    01:00 +7°C° 0 mm 3 mps 572 mmHg 21%
    02:00 +5°C° 0 mm 3 mps 572 mmHg 22%
    03:00 +5°C° 0 mm 3 mps 571 mmHg 23%
    04:00 +5°C° 0 mm 3 mps 572 mmHg 23%
    05:00 +5°C° 0 mm 3 mps 572 mmHg 23%
    06:00 +7°C° 0 mm 3 mps 572 mmHg 22%
    07:00 +7°C° 0 mm 4 mps 573 mmHg 20%
    08:00 +8°C° 0 mm 4 mps 573 mmHg 17%
    09:00 +10°C° 0 mm 5 mps 574 mmHg 15%
    10:00 +10°C° 0 mm 5 mps 574 mmHg 14%
    11:00 +12°C° 0 mm 5 mps 573 mmHg 13%
    12:00 +13°C° 0 mm 6 mps 573 mmHg 13%
    13:00 +13°C° 0 mm 6 mps 573 mmHg 13%
    14:00 +13°C° 0 mm 5 mps 573 mmHg 13%
    15:00 +14°C° 0 mm 5 mps 572 mmHg 13%
    16:00 +13°C° 0 mm 5 mps 572 mmHg 13%
    17:00 +13°C° 0 mm 4 mps 572 mmHg 14%
    18:00 +13°C° 0 mm 4 mps 571 mmHg 14%
    19:00 +12°C° 0 mm 4 mps 571 mmHg 15%
    20:00 +11°C° 0 mm 3 mps 571 mmHg 16%
    21:00 +11°C° 0 mm 3 mps 571 mmHg 18%
    22:00 +10°C° 0 mm 3 mps 571 mmHg 19%
    23:00 +9°C° 0 mm 3 mps 570 mmHg 19%

    28 May, Tuesday

    Time Temperature Precipitation Wind Pressure Humidity
    00:00 +9°C° 0 mm 2 mps 570 mmHg 20%
    01:00 +8°C° 0 mm 2 mps 570 mmHg 21%
    02:00 +8°C° 0 mm 2 mps 569 mmHg 22%
    03:00 +7°C° 0 mm 2 mps 569 mmHg 22%
    04:00 +8°C° 0 mm 2 mps 569 mmHg 21%
    05:00 +8°C° 0 mm 2 mps 570 mmHg 20%
    06:00 +9°C° 0 mm 2 mps 570 mmHg 19%
    07:00 +9°C° 0 mm 3 mps 570 mmHg 20%
    08:00 +9°C° 0 mm 3 mps 570 mmHg 21%
    09:00 +10°C° 0 mm 4 mps 571 mmHg 22%
    10:00 +10°C° 0 mm 4 mps 570 mmHg 24%
    11:00 +10°C° 0 mm 4 mps 570 mmHg 25%
    12:00 +10°C° 0 mm 4 mps 570 mmHg 27%
    13:00 +11°C° 0 mm 4 mps 570 mmHg 27%
    14:00 +11°C° 0 mm 4 mps 570 mmHg 27%
    15:00 +11°C° 0 mm 4 mps 570 mmHg 27%
    16:00 +11°C° 0 mm 4 mps 569 mmHg 29%
    17:00 +10°C° 0 mm 4 mps 569 mmHg 30%
    18:00 +10°C° 0 mm 3 mps 569 mmHg 32%
    19:00 +8°C° 0 mm 4 mps 569 mmHg 38%
    20:00 +7°C° 0 mm 5 mps 569 mmHg 44%
    21:00 +5°C° 0 mm 6 mps 569 mmHg 49%
    22:00 +5°C° 0 mm 5 mps 568 mmHg 57%
    23:00 +3°C° 0 mm 5 mps 568 mmHg 64%

    29 May, Wednesday

    Time Temperature Precipitation Wind Pressure Humidity
    00:00 +3°C° 0 mm 4 mps 567 mmHg 71%
    01:00 +1°C° 0 mm 4 mps 567 mmHg 73%
    02:00 +1°C° 0 mm 3 mps 566 mmHg 75%
    03:00 +1°C° 0 mm 3 mps 566 mmHg 76%
    04:00 +1°C° 0 mm 3 mps 566 mmHg 76%
    05:00 +1°C° 0 mm 3 mps 566 mmHg 75%
    06:00 +1°C° 0 mm 3 mps 566 mmHg 74%
    07:00 0°C° 0.3 mm 4 mps 566 mmHg 71%
    08:00 0°C° 0.3 mm 5 mps 566 mmHg 68%
    09:00 0°C° 0.3 mm 5 mps 566 mmHg 65%
    10:00 -1°C° 0.1 mm 6 mps 566 mmHg 63%
    11:00 +1°C° 0.1 mm 6 mps 566 mmHg 61%
    12:00 0°C° 0.1 mm 7 mps 566 mmHg 60%
    13:00 0°C° 0 mm 7 mps 566 mmHg 59%
    14:00 +1°C° 0 mm 6 mps 566 mmHg 58%
    15:00 +1°C° 0 mm 6 mps 566 mmHg 57%
    16:00 +1°C° 0.3 mm 5 mps 566 mmHg 59%
    17:00 +1°C° 0.3 mm 5 mps 566 mmHg 62%
    18:00 +1°C° 0.3 mm 4 mps 566 mmHg 65%
    19:00 +1°C° 0.1 mm 4 mps 566 mmHg 61%
    20:00 +1°C° 0.1 mm 4 mps 567 mmHg 56%
    21:00 +1°C° 0.1 mm 4 mps 567 mmHg 52%
    22:00 +2°C° 0 mm 3 mps 567 mmHg 51%
    23:00 +1°C° 0 mm 3 mps 567 mmHg 50%
    Show more